Location: Observatorio del Centro Ecologico de Sonora
(29.0667°N, 110.9333°W)
Time: 13:58:35
(UTC-07:00)

ISS - Visible Passes

Search period start: 29 August 2015 00:00
Search period end: 08 September 2015 00:00
Orbit: 399 x 401 km, 51.6° (Epoch: 29 August)

Date Brightness Start Highest point End Pass type
(mag) Time Alt. Az. Time Alt. Az. Time Alt. Az.
05 Sep -2.2 05:35:23 10° SSW 05:38:27 42° SE 05:41:33 10° ENE visible
06 Sep -0.8 04:42:36 10° S 04:44:48 17° SE 04:47:04 10° E visible
07 Sep -3.2 05:24:15 12° SW 05:27:10 59° NW 05:30:23 10° NE visible
